Year,Month,Day,Hour,Minute,Value (Times are PST for windspeed in km/hr)
2013,02,27,00,00,1.00
2013,02,27,00,01,0.10
2013,02,27,00,02,0.20
2013,02,27,00,03,3.00
2013,02,27,00,04,3.90
2013,02,27,00,05,0.90
2013,02,27,00,06,0.80
2013,02,27,00,07,1.10
2013,02,27,00,08,1.20
2013,02,27,00,09,0.00
2013,02,27,00,10,0.10
2013,02,27,00,11,0.40
2013,02,27,00,12,0.40
2013,02,27,00,13,0.00
2013,02,27,00,14,0.00
2013,02,27,00,15,0.00
2013,02,27,00,16,0.00
2013,02,27,00,17,0.00
2013,02,27,00,18,0.10
2013,02,27,00,19,0.00
2013,02,27,00,20,0.60
2013,02,27,00,21,3.40
2013,02,27,00,22,0.20
2013,02,27,00,23,1.30
2013,02,27,00,24,1.00
2013,02,27,00,25,0.00
2013,02,27,00,26,0.00
2013,02,27,00,27,0.00
2013,02,27,00,28,0.20
2013,02,27,00,29,0.00
2013,02,27,00,30,0.00
2013,02,27,00,31,1.00
2013,02,27,00,32,0.00
2013,02,27,00,33,0.00
2013,02,27,00,34,0.10
2013,02,27,00,35,0.20
2013,02,27,00,36,2.90
2013,02,27,00,37,3.60
2013,02,27,00,38,0.50
2013,02,27,00,39,0.00
2013,02,27,00,40,0.00
2013,02,27,00,41,0.70
2013,02,27,00,42,1.90
2013,02,27,00,43,1.90
2013,02,27,00,44,2.30
2013,02,27,00,45,1.70
2013,02,27,00,46,4.30
2013,02,27,00,47,3.10
2013,02,27,00,48,0.10
2013,02,27,00,49,0.80
2013,02,27,00,50,1.20
2013,02,27,00,51,1.40
2013,02,27,00,52,3.50
2013,02,27,00,53,3.90
2013,02,27,00,54,3.10
2013,02,27,00,55,2.40
2013,02,27,00,56,6.60
2013,02,27,00,57,3.20
2013,02,27,00,58,4.80
2013,02,27,00,59,3.60
2013,02,27,01,00,2.90
2013,02,27,01,01,0.00
2013,02,27,01,02,3.60
2013,02,27,01,03,6.20
2013,02,27,01,04,7.80
2013,02,27,01,05,6.10
2013,02,27,01,06,6.10
2013,02,27,01,07,8.20
2013,02,27,01,08,10.70
2013,02,27,01,09,8.50
2013,02,27,01,10,11.80
2013,02,27,01,11,10.80
2013,02,27,01,12,9.70
2013,02,27,01,13,4.70
2013,02,27,01,14,1.70
2013,02,27,01,15,0.60
2013,02,27,01,16,4.70
2013,02,27,01,17,1.60
2013,02,27,01,18,3.20
2013,02,27,01,19,2.10
2013,02,27,01,20,1.90
2013,02,27,01,21,2.70
2013,02,27,01,22,3.10
2013,02,27,01,23,4.30
2013,02,27,01,24,1.50
2013,02,27,01,25,1.90
2013,02,27,01,26,4.30
2013,02,27,01,27,5.00
2013,02,27,01,28,3.20
2013,02,27,01,29,8.20
2013,02,27,01,30,4.30
2013,02,27,01,31,6.80
2013,02,27,01,32,7.20
2013,02,27,01,33,6.80
2013,02,27,01,34,7.50
2013,02,27,01,35,7.40
2013,02,27,01,36,8.90
2013,02,27,01,37,7.10
2013,02,27,01,38,9.30
2013,02,27,01,39,7.60
2013,02,27,01,40,12.20
2013,02,27,01,41,6.80
2013,02,27,01,42,12.60
2013,02,27,01,43,13.80
2013,02,27,01,44,12.90
2013,02,27,01,45,14.00
2013,02,27,01,46,10.70
2013,02,27,01,47,12.90
2013,02,27,01,48,7.20
2013,02,27,01,49,6.00
2013,02,27,01,50,5.90
2013,02,27,01,51,6.00
2013,02,27,01,52,4.30
2013,02,27,01,53,3.90
2013,02,27,01,54,1.10
2013,02,27,01,55,5.00
2013,02,27,01,56,1.70
2013,02,27,01,57,1.40
2013,02,27,01,58,5.10
2013,02,27,01,59,6.00
2013,02,27,02,00,0.20
2013,02,27,02,01,0.10
2013,02,27,02,02,2.70
2013,02,27,02,03,2.30
2013,02,27,02,04,8.40
2013,02,27,02,05,4.60
2013,02,27,02,06,2.20
2013,02,27,02,07,7.20
2013,02,27,02,08,7.50
2013,02,27,02,09,8.90
2013,02,27,02,10,4.10
2013,02,27,02,11,8.80
2013,02,27,02,12,6.90
2013,02,27,02,13,4.90
2013,02,27,02,14,4.90
2013,02,27,02,15,0.10
2013,02,27,02,16,7.40
2013,02,27,02,17,3.90
2013,02,27,02,18,5.70
2013,02,27,02,19,3.50
2013,02,27,02,20,3.70
2013,02,27,02,21,0.30
2013,02,27,02,22,0.60
2013,02,27,02,23,1.40
2013,02,27,02,24,2.00
2013,02,27,02,25,3.80
2013,02,27,02,26,2.20
2013,02,27,02,27,0.00
2013,02,27,02,28,1.10
2013,02,27,02,29,3.00
2013,02,27,02,30,1.60
2013,02,27,02,31,1.40
2013,02,27,02,32,1.90
2013,02,27,02,33,1.80
2013,02,27,02,34,0.30
2013,02,27,02,35,1.80
2013,02,27,02,36,1.70
2013,02,27,02,37,0.10
2013,02,27,02,38,2.90
2013,02,27,02,39,3.30
2013,02,27,02,40,1.80
2013,02,27,02,41,1.70
2013,02,27,02,42,2.10
2013,02,27,02,43,2.20
2013,02,27,02,44,4.30
2013,02,27,02,45,2.30
2013,02,27,02,46,0.00
2013,02,27,02,47,1.10
2013,02,27,02,48,2.30
2013,02,27,02,49,0.20
2013,02,27,02,50,0.10
2013,02,27,02,51,0.00
2013,02,27,02,52,1.20
2013,02,27,02,53,3.00
2013,02,27,02,54,5.10
2013,02,27,02,55,4.00
2013,02,27,02,56,4.20
2013,02,27,02,57,1.80
2013,02,27,02,58,1.10
2013,02,27,02,59,3.10
2013,02,27,03,00,0.40
2013,02,27,03,01,1.50
2013,02,27,03,02,2.90
2013,02,27,03,03,2.70
2013,02,27,03,06,1.60
2013,02,27,03,07,2.30
2013,02,27,03,08,1.60
2013,02,27,03,09,4.80
2013,02,27,03,10,5.20
2013,02,27,03,11,5.50
2013,02,27,03,12,2.90
2013,02,27,03,13,4.40
2013,02,27,03,14,6.00
2013,02,27,03,15,2.30
2013,02,27,03,16,6.40
2013,02,27,03,17,6.00
2013,02,27,03,18,0.60
2013,02,27,03,19,3.20
2013,02,27,03,20,0.30
2013,02,27,03,21,0.00
2013,02,27,03,22,1.40
2013,02,27,03,23,4.60
2013,02,27,03,24,1.30
2013,02,27,03,25,2.40
2013,02,27,03,26,2.60
2013,02,27,03,27,1.40
2013,02,27,03,28,2.10
2013,02,27,03,29,5.70
2013,02,27,03,30,3.70
2013,02,27,03,31,0.00
2013,02,27,03,32,1.10
2013,02,27,03,33,3.70
2013,02,27,03,34,5.00
2013,02,27,03,35,2.20
2013,02,27,03,36,0.00
2013,02,27,03,37,1.80
2013,02,27,03,38,1.00
2013,02,27,03,39,0.00
2013,02,27,03,40,0.20
2013,02,27,03,41,0.00
2013,02,27,03,42,0.40
2013,02,27,03,43,1.20
2013,02,27,03,44,1.40
2013,02,27,03,45,2.20
2013,02,27,03,46,1.80
2013,02,27,03,47,0.40
2013,02,27,03,48,0.00
2013,02,27,03,49,0.20
2013,02,27,03,50,0.10
2013,02,27,03,51,0.10
2013,02,27,03,52,1.00
2013,02,27,03,53,0.10
2013,02,27,03,54,3.00
2013,02,27,03,55,1.40
2013,02,27,03,56,0.00
2013,02,27,03,57,0.00
2013,02,27,03,58,1.40
2013,02,27,03,59,0.00
2013,02,27,04,00,1.40
2013,02,27,04,01,0.00
2013,02,27,04,02,0.00
2013,02,27,04,03,0.00
2013,02,27,04,04,0.10
2013,02,27,04,05,0.00
2013,02,27,04,06,0.60
2013,02,27,04,07,0.00
2013,02,27,04,08,0.00
2013,02,27,04,09,1.60
2013,02,27,04,10,1.40
2013,02,27,04,11,0.60
2013,02,27,04,12,0.40
2013,02,27,04,13,1.10
2013,02,27,04,14,2.00
2013,02,27,04,15,0.00
2013,02,27,04,16,0.00
2013,02,27,04,17,0.00
2013,02,27,04,18,0.00
2013,02,27,04,19,0.10
2013,02,27,04,20,0.00
2013,02,27,04,21,0.00
2013,02,27,04,22,0.00
2013,02,27,04,23,0.00
2013,02,27,04,24,1.00
2013,02,27,04,25,0.00
2013,02,27,04,26,0.20
2013,02,27,04,27,0.00
2013,02,27,04,28,2.10
2013,02,27,04,29,1.40
2013,02,27,04,30,0.00
2013,02,27,04,31,0.10
2013,02,27,04,32,0.00
2013,02,27,04,33,0.00
2013,02,27,04,34,0.00
2013,02,27,04,35,0.00
2013,02,27,04,36,0.00
2013,02,27,04,37,0.00
2013,02,27,04,38,0.00
2013,02,27,04,39,0.00
2013,02,27,04,40,0.00
2013,02,27,04,41,0.00
2013,02,27,04,42,0.00
2013,02,27,04,43,0.00
2013,02,27,04,44,0.00
2013,02,27,04,45,0.30
2013,02,27,04,46,1.00
2013,02,27,04,47,1.10
2013,02,27,04,48,1.40
2013,02,27,04,49,0.70
2013,02,27,04,50,0.80
2013,02,27,04,51,0.40
2013,02,27,04,52,0.10
2013,02,27,04,53,0.00
2013,02,27,04,54,0.20
2013,02,27,04,55,1.60
2013,02,27,04,56,0.00
2013,02,27,04,57,0.00
2013,02,27,04,58,0.00
2013,02,27,04,59,5.10
2013,02,27,05,00,1.80
2013,02,27,05,01,4.10
2013,02,27,05,02,1.00
2013,02,27,05,03,0.00
2013,02,27,05,04,0.00
2013,02,27,05,05,0.00
2013,02,27,05,06,0.00
2013,02,27,05,07,0.60
2013,02,27,05,08,0.00
2013,02,27,05,09,0.00
2013,02,27,05,10,0.20
2013,02,27,05,11,1.80
2013,02,27,05,12,0.00
2013,02,27,05,13,0.00
2013,02,27,05,14,1.30
2013,02,27,05,15,0.80
2013,02,27,05,16,1.70
2013,02,27,05,17,1.70
2013,02,27,05,18,1.80
2013,02,27,05,19,1.50
2013,02,27,05,20,0.90
2013,02,27,05,21,3.10
2013,02,27,05,22,0.40
2013,02,27,05,23,0.00
2013,02,27,05,24,4.30
2013,02,27,05,25,2.00
2013,02,27,05,26,4.00
2013,02,27,05,27,1.10
2013,02,27,05,28,1.60
2013,02,27,05,29,1.90
2013,02,27,05,30,0.80
2013,02,27,05,31,0.20
2013,02,27,05,32,0.40
2013,02,27,05,33,2.70
2013,02,27,05,34,0.00
2013,02,27,05,35,0.00
2013,02,27,05,36,0.00
2013,02,27,05,37,0.00
2013,02,27,05,38,0.00
2013,02,27,05,39,0.00
2013,02,27,05,40,0.00
2013,02,27,05,41,0.00
2013,02,27,05,42,0.00
2013,02,27,05,43,0.00
2013,02,27,05,44,0.00
2013,02,27,05,45,0.00
2013,02,27,05,46,0.00
2013,02,27,05,47,0.00
2013,02,27,05,48,0.00
2013,02,27,05,49,0.00
2013,02,27,05,50,0.00
2013,02,27,05,51,0.00
2013,02,27,05,52,0.20
2013,02,27,05,53,0.00
2013,02,27,05,54,1.00
2013,02,27,05,55,0.90
2013,02,27,05,56,0.20
2013,02,27,05,57,0.00
2013,02,27,05,58,0.00
2013,02,27,05,59,0.00
2013,02,27,06,00,0.00
2013,02,27,06,01,0.00
2013,02,27,06,02,0.00
2013,02,27,06,03,0.10
2013,02,27,06,04,0.00
2013,02,27,06,05,0.00
2013,02,27,06,06,0.00
2013,02,27,06,07,0.00
2013,02,27,06,08,0.00
2013,02,27,06,09,0.00
2013,02,27,06,10,0.00
2013,02,27,06,11,0.80
2013,02,27,06,12,0.00
2013,02,27,06,13,0.00
2013,02,27,06,14,0.00
2013,02,27,06,15,0.00
2013,02,27,06,16,0.10
2013,02,27,06,17,0.00
2013,02,27,06,18,0.00
2013,02,27,06,19,0.00
2013,02,27,06,20,0.00
2013,02,27,06,21,0.00
2013,02,27,06,22,0.00
2013,02,27,06,23,0.00
2013,02,27,06,24,0.00
2013,02,27,06,25,0.00
2013,02,27,06,26,0.00
2013,02,27,06,27,0.00
2013,02,27,06,28,0.20
2013,02,27,06,29,2.50
2013,02,27,06,30,2.80
2013,02,27,06,31,0.30
2013,02,27,06,32,0.00
2013,02,27,06,33,2.10
2013,02,27,06,34,1.90
2013,02,27,06,35,0.60
2013,02,27,06,36,0.00
2013,02,27,06,37,0.10
2013,02,27,06,38,0.90
2013,02,27,06,39,0.80
2013,02,27,06,40,3.60
2013,02,27,06,41,1.80
2013,02,27,06,42,1.80
2013,02,27,06,43,0.60
2013,02,27,06,44,0.50
2013,02,27,06,45,0.00
2013,02,27,06,46,0.10
2013,02,27,06,47,0.00
2013,02,27,06,48,0.00
2013,02,27,06,49,1.40
2013,02,27,06,50,3.60
2013,02,27,06,51,2.40
2013,02,27,06,52,4.10
2013,02,27,06,53,1.10
2013,02,27,06,54,1.30
2013,02,27,06,55,0.50
2013,02,27,06,56,0.00
2013,02,27,06,57,0.20
2013,02,27,06,58,1.50
2013,02,27,06,59,0.10
2013,02,27,07,00,0.00
2013,02,27,07,01,1.10
2013,02,27,07,02,0.70
2013,02,27,07,03,3.80
2013,02,27,07,04,0.00
2013,02,27,07,05,2.20
2013,02,27,07,06,1.60
2013,02,27,07,07,4.30
2013,02,27,07,08,1.00
2013,02,27,07,09,0.00
2013,02,27,07,10,0.30
2013,02,27,07,11,0.00
2013,02,27,07,12,0.00
2013,02,27,07,13,0.20
2013,02,27,07,14,0.60
2013,02,27,07,15,0.00
2013,02,27,07,16,0.00
2013,02,27,07,17,2.70
2013,02,27,07,18,0.00
2013,02,27,07,19,0.00
2013,02,27,07,20,0.00
2013,02,27,07,21,0.00
2013,02,27,07,22,0.00
2013,02,27,07,23,0.00
2013,02,27,07,24,0.00
2013,02,27,07,25,0.70
2013,02,27,07,26,0.40
2013,02,27,07,27,0.20
2013,02,27,07,28,0.00
2013,02,27,07,29,0.00
2013,02,27,07,30,0.70
2013,02,27,07,31,1.50
2013,02,27,07,32,0.00
2013,02,27,07,33,0.00
2013,02,27,07,34,0.00
2013,02,27,07,35,0.00
2013,02,27,07,36,0.00
2013,02,27,07,37,0.00
2013,02,27,07,38,0.00
2013,02,27,07,39,0.00
2013,02,27,07,40,0.40
2013,02,27,07,41,2.40
2013,02,27,07,42,2.20
2013,02,27,07,43,2.20
2013,02,27,07,44,0.60
2013,02,27,07,45,2.50
2013,02,27,07,46,0.60
2013,02,27,07,47,1.10
2013,02,27,07,48,0.00
2013,02,27,07,49,0.80
2013,02,27,07,50,1.10
2013,02,27,07,51,0.00
2013,02,27,07,52,0.60
2013,02,27,07,53,0.00
2013,02,27,07,54,0.00
2013,02,27,07,55,2.80
2013,02,27,07,56,1.10
2013,02,27,07,57,6.00
2013,02,27,07,58,5.90
2013,02,27,07,59,3.30
2013,02,27,08,00,2.60
2013,02,27,08,01,0.10
2013,02,27,08,02,2.90
2013,02,27,08,03,0.00
2013,02,27,08,04,3.10
2013,02,27,08,05,1.70
2013,02,27,08,06,2.70
2013,02,27,08,07,0.90
2013,02,27,08,08,0.00
2013,02,27,08,09,0.00
2013,02,27,08,10,2.30
2013,02,27,08,11,1.20
2013,02,27,08,12,0.00
2013,02,27,08,13,1.00
2013,02,27,08,14,4.70
2013,02,27,08,15,1.30
2013,02,27,08,16,0.00
2013,02,27,08,17,0.00
2013,02,27,08,18,0.00
2013,02,27,08,19,0.00
2013,02,27,08,20,2.20
2013,02,27,08,21,1.90
2013,02,27,08,22,1.10
2013,02,27,08,23,1.20
2013,02,27,08,24,1.00
2013,02,27,08,25,1.80
2013,02,27,08,26,6.60
2013,02,27,08,27,3.40
2013,02,27,08,28,2.10
2013,02,27,08,29,2.20
2013,02,27,08,30,3.00
2013,02,27,08,31,5.10
2013,02,27,08,32,5.90
2013,02,27,08,33,6.10
2013,02,27,08,34,6.00
2013,02,27,08,35,8.10
2013,02,27,08,36,4.00
2013,02,27,08,37,3.40
2013,02,27,08,38,5.70
2013,02,27,08,39,3.60
2013,02,27,08,40,3.80
2013,02,27,08,41,3.90
2013,02,27,08,42,3.20
2013,02,27,08,43,4.00
2013,02,27,08,44,5.90
2013,02,27,08,45,2.20
2013,02,27,08,46,5.10
2013,02,27,08,47,2.70
2013,02,27,08,48,5.40
2013,02,27,08,49,7.40
2013,02,27,08,50,4.50
2013,02,27,08,51,4.70
2013,02,27,08,52,8.20
2013,02,27,08,53,7.20
2013,02,27,08,54,9.10
2013,02,27,08,55,6.80
2013,02,27,08,56,4.40
2013,02,27,08,57,9.10
2013,02,27,08,58,7.70
2013,02,27,08,59,11.80
2013,02,27,09,00,10.90
2013,02,27,09,01,7.60
2013,02,27,09,02,7.20
2013,02,27,09,03,7.60
2013,02,27,09,04,4.70
2013,02,27,09,05,7.50
2013,02,27,09,06,8.90
2013,02,27,09,07,10.70
2013,02,27,09,08,7.10
2013,02,27,09,09,4.00
2013,02,27,09,10,3.60
2013,02,27,09,11,7.00
2013,02,27,09,12,4.70
2013,02,27,09,13,6.90
2013,02,27,09,14,10.50
2013,02,27,09,15,8.00
2013,02,27,09,16,6.40
2013,02,27,09,17,3.90
2013,02,27,09,18,6.60
2013,02,27,09,19,3.80
2013,02,27,09,20,8.70
2013,02,27,09,21,10.60
2013,02,27,09,22,2.40
2013,02,27,09,23,3.60
2013,02,27,09,24,9.50
2013,02,27,09,25,11.80
2013,02,27,09,26,10.20
2013,02,27,09,27,5.80
2013,02,27,09,28,7.60
2013,02,27,09,29,5.40
2013,02,27,09,30,5.00
2013,02,27,09,31,6.00
2013,02,27,09,32,9.30
2013,02,27,09,33,6.60
2013,02,27,09,34,7.30
2013,02,27,09,35,10.50
2013,02,27,09,36,3.00
2013,02,27,09,37,0.00
2013,02,27,09,38,0.20
2013,02,27,09,39,4.60
2013,02,27,09,40,8.50
2013,02,27,09,41,4.70
2013,02,27,09,42,9.60
2013,02,27,09,43,6.90
2013,02,27,09,44,5.60
2013,02,27,09,45,8.30
2013,02,27,09,46,8.40
2013,02,27,09,47,8.60
2013,02,27,09,48,8.70
2013,02,27,09,49,9.30
2013,02,27,09,50,6.80
2013,02,27,09,51,5.20
2013,02,27,09,52,8.60
2013,02,27,09,53,2.90
2013,02,27,09,54,6.10
2013,02,27,09,55,5.50
2013,02,27,09,56,1.90
2013,02,27,09,57,1.00
2013,02,27,09,58,3.50
2013,02,27,09,59,8.10
2013,02,27,10,00,10.30
2013,02,27,10,01,11.20
2013,02,27,10,02,4.50
2013,02,27,10,03,4.50
2013,02,27,10,04,0.20
2013,02,27,10,05,4.10
2013,02,27,10,06,1.00
2013,02,27,10,07,0.00
2013,02,27,10,08,4.30
2013,02,27,10,09,7.90
2013,02,27,10,10,6.80
2013,02,27,10,11,5.40
2013,02,27,10,12,1.90
2013,02,27,10,13,0.00
2013,02,27,10,14,1.20
2013,02,27,10,15,4.70
2013,02,27,10,16,1.40
2013,02,27,10,17,2.80
2013,02,27,10,18,6.70
2013,02,27,10,19,6.60
2013,02,27,10,20,0.20
2013,02,27,10,21,4.00
2013,02,27,10,22,4.20
2013,02,27,10,23,5.60
2013,02,27,10,24,1.90
2013,02,27,10,25,5.60
2013,02,27,10,26,0.90
2013,02,27,10,27,0.00
2013,02,27,10,28,2.20
2013,02,27,10,29,0.20
2013,02,27,10,30,4.30
2013,02,27,10,31,8.10
2013,02,27,10,32,5.00
2013,02,27,10,33,6.30
2013,02,27,10,34,7.70
2013,02,27,10,35,11.00
2013,02,27,10,36,10.40
2013,02,27,10,37,9.70
2013,02,27,10,38,4.00
2013,02,27,10,39,4.90
2013,02,27,10,40,5.00
2013,02,27,10,41,1.40
2013,02,27,10,42,0.40
2013,02,27,10,43,3.30
2013,02,27,10,44,8.00
2013,02,27,10,45,3.80
2013,02,27,10,46,2.70
2013,02,27,10,47,5.80
2013,02,27,10,48,12.50
2013,02,27,10,49,8.90
2013,02,27,10,50,4.10
2013,02,27,10,51,4.20
2013,02,27,10,52,6.80
2013,02,27,10,53,7.80
2013,02,27,10,54,5.90
2013,02,27,10,55,7.10
2013,02,27,10,56,7.70
2013,02,27,10,57,9.50
2013,02,27,10,58,11.40
2013,02,27,10,59,8.90
2013,02,27,11,00,6.00
2013,02,27,11,01,3.20
2013,02,27,11,02,2.10
2013,02,27,11,03,8.90
2013,02,27,11,04,11.40
2013,02,27,11,05,15.20
2013,02,27,11,06,9.70
2013,02,27,11,07,10.10
2013,02,27,11,08,6.80
2013,02,27,11,09,6.80
2013,02,27,11,10,8.00
2013,02,27,11,11,11.50
2013,02,27,11,12,9.30
2013,02,27,11,13,6.80
2013,02,27,11,14,7.10
2013,02,27,11,15,4.20
2013,02,27,11,16,6.20
2013,02,27,11,17,9.80
2013,02,27,11,18,6.50
2013,02,27,11,19,7.70
2013,02,27,11,20,8.50
2013,02,27,11,21,3.10
2013,02,27,11,22,2.80
2013,02,27,11,23,2.90
2013,02,27,11,24,3.40
2013,02,27,11,25,8.00
2013,02,27,11,26,7.80
2013,02,27,11,27,6.10
2013,02,27,11,28,1.90
2013,02,27,11,29,3.00
2013,02,27,11,30,7.60
2013,02,27,11,31,4.90
2013,02,27,11,32,5.60
2013,02,27,11,33,10.50
2013,02,27,11,34,6.30
2013,02,27,11,35,10.90
2013,02,27,11,36,8.60
2013,02,27,11,37,0.80
2013,02,27,11,38,4.60
2013,02,27,11,39,9.00
2013,02,27,11,40,5.30
2013,02,27,11,41,8.30
2013,02,27,11,42,7.90
2013,02,27,11,43,8.50
2013,02,27,11,44,10.10
2013,02,27,11,45,11.00
2013,02,27,11,46,8.50
2013,02,27,11,47,6.00
2013,02,27,11,48,2.10
2013,02,27,11,49,2.70
2013,02,27,11,50,1.00
2013,02,27,11,51,3.80
2013,02,27,11,52,9.40
2013,02,27,11,53,8.20
2013,02,27,11,54,12.60
2013,02,27,11,55,10.90
2013,02,27,11,56,12.30
2013,02,27,11,57,9.60
2013,02,27,11,58,8.80
2013,02,27,11,59,11.30
2013,02,27,12,00,11.60
2013,02,27,12,01,8.70
2013,02,27,12,02,12.80
2013,02,27,12,03,7.30
2013,02,27,12,04,4.80
2013,02,27,12,05,11.70
2013,02,27,12,06,4.70
2013,02,27,12,07,6.50
2013,02,27,12,08,12.30
2013,02,27,12,09,12.90
2013,02,27,12,10,14.10
2013,02,27,12,11,7.10
2013,02,27,12,12,10.80
2013,02,27,12,13,8.10
2013,02,27,12,14,4.20
2013,02,27,12,15,7.70
2013,02,27,12,16,5.20
2013,02,27,12,17,12.50
2013,02,27,12,18,11.30
2013,02,27,12,19,8.00
2013,02,27,12,20,8.80
2013,02,27,12,21,6.80
2013,02,27,12,22,8.00
2013,02,27,12,23,6.90
2013,02,27,12,24,10.20
2013,02,27,12,25,9.30
2013,02,27,12,26,12.80
2013,02,27,12,27,8.90
2013,02,27,12,28,12.50
2013,02,27,12,29,13.10
2013,02,27,12,30,12.80
2013,02,27,12,31,15.50
2013,02,27,12,32,14.30
2013,02,27,12,33,14.40
2013,02,27,12,34,11.50
2013,02,27,12,35,12.10
2013,02,27,12,36,6.90
2013,02,27,12,37,4.70
2013,02,27,12,38,3.50
2013,02,27,12,39,4.50
2013,02,27,12,40,9.20
2013,02,27,12,41,14.90
2013,02,27,12,42,12.10
2013,02,27,12,43,10.10
2013,02,27,12,44,8.10
2013,02,27,12,45,7.60
2013,02,27,12,46,8.90
2013,02,27,12,47,14.40
2013,02,27,12,48,10.20
2013,02,27,12,49,3.90
2013,02,27,12,50,9.60
2013,02,27,12,51,4.50
2013,02,27,12,52,5.10
2013,02,27,12,53,4.80
2013,02,27,12,54,2.90
2013,02,27,12,55,3.00
2013,02,27,12,56,4.50
2013,02,27,12,57,5.20
2013,02,27,12,58,3.70
2013,02,27,12,59,10.90
2013,02,27,13,00,11.70
2013,02,27,13,01,8.20
2013,02,27,13,02,6.10
2013,02,27,13,03,5.60
2013,02,27,13,04,4.80
2013,02,27,13,05,4.50
2013,02,27,13,06,2.70
2013,02,27,13,07,6.20
2013,02,27,13,08,5.60
2013,02,27,13,09,8.90
2013,02,27,13,10,3.90
2013,02,27,13,11,3.20
2013,02,27,13,12,3.70
2013,02,27,13,13,11.40
2013,02,27,13,14,8.80
2013,02,27,13,15,5.70
2013,02,27,13,16,4.60
2013,02,27,13,17,6.00
2013,02,27,13,18,4.30
2013,02,27,13,19,4.50
2013,02,27,13,20,7.10
2013,02,27,13,21,4.20
2013,02,27,13,22,4.50
2013,02,27,13,23,8.50
2013,02,27,13,24,10.90
2013,02,27,13,25,10.90
2013,02,27,13,26,6.50
2013,02,27,13,27,3.90
2013,02,27,13,28,1.70
2013,02,27,13,29,6.40
2013,02,27,13,30,5.60
2013,02,27,13,31,6.70
2013,02,27,13,32,4.20
2013,02,27,13,33,1.70
2013,02,27,13,34,7.10
2013,02,27,13,35,8.60
2013,02,27,13,36,8.60
2013,02,27,13,37,6.10
2013,02,27,13,38,1.50
2013,02,27,13,39,0.50
2013,02,27,13,40,4.50
2013,02,27,13,41,8.60
2013,02,27,13,42,10.40
2013,02,27,13,43,5.70
2013,02,27,13,44,8.40
2013,02,27,13,45,9.00
2013,02,27,13,46,6.50
2013,02,27,13,47,3.80
2013,02,27,13,48,0.70
2013,02,27,13,49,4.90
2013,02,27,13,50,3.00
2013,02,27,13,51,1.30
2013,02,27,13,52,5.30
2013,02,27,13,53,5.20
2013,02,27,13,54,4.20
2013,02,27,13,55,0.10
2013,02,27,13,56,0.00
2013,02,27,13,57,2.30
2013,02,27,13,58,2.90
2013,02,27,13,59,2.00
2013,02,27,14,00,0.40
2013,02,27,14,01,0.00
2013,02,27,14,02,0.50
2013,02,27,14,03,0.10
2013,02,27,14,04,0.00
2013,02,27,14,05,1.40
2013,02,27,14,06,3.10
2013,02,27,14,07,2.90
2013,02,27,14,08,3.60
2013,02,27,14,09,2.90
2013,02,27,14,10,0.50
2013,02,27,14,11,4.10
2013,02,27,14,12,2.90
2013,02,27,14,13,1.90
2013,02,27,14,14,1.30
2013,02,27,14,15,0.90
2013,02,27,14,16,4.80
2013,02,27,14,17,2.40
2013,02,27,14,18,0.50
2013,02,27,14,19,1.90
2013,02,27,14,20,0.00
2013,02,27,14,21,0.00
2013,02,27,14,22,0.20
2013,02,27,14,23,0.00
2013,02,27,14,24,0.00
2013,02,27,14,25,0.00
2013,02,27,14,26,0.00
2013,02,27,14,27,0.00
2013,02,27,14,28,0.00
2013,02,27,14,29,0.00
2013,02,27,14,30,0.00
2013,02,27,14,31,0.00
2013,02,27,14,32,0.00
2013,02,27,14,33,0.00
2013,02,27,14,34,0.00
2013,02,27,14,35,0.00
2013,02,27,14,36,0.00
2013,02,27,14,37,0.20
2013,02,27,14,38,0.20
2013,02,27,14,39,0.00
2013,02,27,14,40,0.00
2013,02,27,14,41,0.00
2013,02,27,14,42,0.10
2013,02,27,14,43,0.00
2013,02,27,14,44,0.00
2013,02,27,14,45,0.00
2013,02,27,14,46,0.00
2013,02,27,14,47,0.00
2013,02,27,14,48,0.00
2013,02,27,14,49,0.00
2013,02,27,14,50,0.00
2013,02,27,14,51,0.00
2013,02,27,14,52,0.10
2013,02,27,14,53,0.00
2013,02,27,14,54,0.00
2013,02,27,14,55,0.00
2013,02,27,14,56,0.00
2013,02,27,14,57,0.00
2013,02,27,14,58,0.00
2013,02,27,14,59,1.30
2013,02,27,15,00,2.50
2013,02,27,15,01,2.20
2013,02,27,15,02,3.20
2013,02,27,15,03,3.50
2013,02,27,15,04,3.10
2013,02,27,15,05,1.80
2013,02,27,15,06,0.50
2013,02,27,15,07,0.10
2013,02,27,15,08,0.30
2013,02,27,15,09,6.10
2013,02,27,15,10,3.90
2013,02,27,15,11,2.90
2013,02,27,15,12,4.60
2013,02,27,15,13,4.20
2013,02,27,15,14,4.40
2013,02,27,15,15,2.90
2013,02,27,15,16,3.50
2013,02,27,15,17,2.20
2013,02,27,15,18,3.60
2013,02,27,15,19,1.60
2013,02,27,15,20,5.20
2013,02,27,15,21,3.40
2013,02,27,15,22,3.50
2013,02,27,15,23,0.90
2013,02,27,15,24,2.30
2013,02,27,15,25,4.80
2013,02,27,15,26,4.10
2013,02,27,15,27,1.90
2013,02,27,15,28,2.50
2013,02,27,15,29,5.20
2013,02,27,15,30,5.30
2013,02,27,15,31,6.00
2013,02,27,15,32,3.60
2013,02,27,15,33,2.70
2013,02,27,15,34,4.10
2013,02,27,15,35,2.20
2013,02,27,15,36,3.30
2013,02,27,15,37,4.30
2013,02,27,15,38,5.90
2013,02,27,15,39,5.30
2013,02,27,15,40,6.00
2013,02,27,15,41,4.30
2013,02,27,15,42,3.00
2013,02,27,15,43,2.40
2013,02,27,15,44,3.10
2013,02,27,15,45,2.70
2013,02,27,15,46,2.60
2013,02,27,15,47,2.60
2013,02,27,15,48,2.90
2013,02,27,15,49,3.20
2013,02,27,15,50,2.40
2013,02,27,15,51,3.20
2013,02,27,15,52,2.80
2013,02,27,15,53,4.20
2013,02,27,15,54,3.50
2013,02,27,15,55,2.30
2013,02,27,15,56,6.00
2013,02,27,15,57,5.00
2013,02,27,15,58,5.90
2013,02,27,15,59,3.30
2013,02,27,16,00,0.80
2013,02,27,16,01,3.70
2013,02,27,16,02,2.00
2013,02,27,16,03,3.50
2013,02,27,16,04,4.20
2013,02,27,16,05,0.60
2013,02,27,16,06,0.40
2013,02,27,16,07,0.00
2013,02,27,16,08,1.20
2013,02,27,16,09,2.60
2013,02,27,16,10,0.40
2013,02,27,16,11,0.40
2013,02,27,16,12,1.70
2013,02,27,16,13,0.10
2013,02,27,16,14,0.00
2013,02,27,16,15,0.10
2013,02,27,16,16,0.20
2013,02,27,16,17,0.20
2013,02,27,16,18,1.10
2013,02,27,16,19,2.20
2013,02,27,16,20,1.10
2013,02,27,16,21,3.00
2013,02,27,16,22,2.30
2013,02,27,16,23,2.80
2013,02,27,16,24,0.60
2013,02,27,16,25,1.10
2013,02,27,16,26,2.50
2013,02,27,16,27,1.80
2013,02,27,16,28,3.40
2013,02,27,16,29,0.80
2013,02,27,16,30,2.70
2013,02,27,16,31,2.60
2013,02,27,16,32,2.40
2013,02,27,16,33,0.30
2013,02,27,16,34,2.00
2013,02,27,16,35,0.30
2013,02,27,16,36,1.80
2013,02,27,16,37,1.30
2013,02,27,16,38,1.20
2013,02,27,16,39,0.20
2013,02,27,16,40,0.10
2013,02,27,16,41,0.00
2013,02,27,16,42,0.00
2013,02,27,16,43,0.00
2013,02,27,16,44,0.00
2013,02,27,16,45,0.00
2013,02,27,16,46,0.00
2013,02,27,16,47,0.00
2013,02,27,16,48,0.00
2013,02,27,16,49,0.30
2013,02,27,16,50,1.10
2013,02,27,16,51,0.00
2013,02,27,16,52,0.00
2013,02,27,16,53,0.00
2013,02,27,16,54,0.00
2013,02,27,16,55,0.10
2013,02,27,16,56,0.20
2013,02,27,16,57,0.00
2013,02,27,16,58,0.00
2013,02,27,16,59,0.00
2013,02,27,17,00,0.00
2013,02,27,17,01,0.00
2013,02,27,17,02,0.00
2013,02,27,17,03,0.00
2013,02,27,17,04,0.00
2013,02,27,17,05,0.00
2013,02,27,17,06,0.00
2013,02,27,17,07,0.00
2013,02,27,17,08,0.00
2013,02,27,17,09,1.00
2013,02,27,17,10,0.50
2013,02,27,17,11,0.60
2013,02,27,17,12,0.00
2013,02,27,17,13,0.00
2013,02,27,17,14,0.00
2013,02,27,17,15,0.00
2013,02,27,17,16,0.80
2013,02,27,17,17,0.00
2013,02,27,17,18,0.00
2013,02,27,17,19,0.00
2013,02,27,17,20,0.00
2013,02,27,17,21,0.10
2013,02,27,17,22,0.20
2013,02,27,17,23,1.90
2013,02,27,17,24,2.30
2013,02,27,17,25,2.70
2013,02,27,17,26,4.50
2013,02,27,17,27,5.60
2013,02,27,17,28,6.90
2013,02,27,17,29,4.90
2013,02,27,17,30,1.90
2013,02,27,17,31,4.30
2013,02,27,17,32,5.70
2013,02,27,17,33,3.00
2013,02,27,17,34,5.20
2013,02,27,17,35,5.90
2013,02,27,17,36,6.00
2013,02,27,17,37,4.50
2013,02,27,17,38,6.50
2013,02,27,17,39,5.60
2013,02,27,17,40,4.90
2013,02,27,17,41,4.30
2013,02,27,17,42,7.20
2013,02,27,17,43,4.30
2013,02,27,17,44,3.20
2013,02,27,17,45,2.60
2013,02,27,17,46,0.20
2013,02,27,17,47,1.10
2013,02,27,17,48,1.80
2013,02,27,17,49,2.10
2013,02,27,17,50,3.90
2013,02,27,17,51,2.80
2013,02,27,17,52,5.60
2013,02,27,17,53,4.40
2013,02,27,17,54,3.90
2013,02,27,17,55,2.30
2013,02,27,17,56,2.60
2013,02,27,17,57,0.00
2013,02,27,17,58,0.00
2013,02,27,17,59,0.00
2013,02,27,18,00,0.00
2013,02,27,18,01,0.00
2013,02,27,18,02,0.00
2013,02,27,18,03,0.00
2013,02,27,18,04,0.00
2013,02,27,18,05,0.00